Wetbulb
69.35 68.74 68.76 68.87 68.58 68.45 69.42 70.08 71.49 72.23 72.35 72.53 72.84 72.99 73.32 72.98 72.80 73.47 72.80 72.49 72.53 72.24
69.17 68.88 68.71 69.48 69.95 69.81 70.43 70.90 71.27 71.72 71.70 72.91 73.06 73.40 73.16 72.56 73.14 73.32 72.88 72.59 72.25 71.89
69.72 69.92 69.87 69.58 69.38 70.09 70.48 71.13 71.97 71.74 72.01 72.28 73.02 73.26 73.55 72.82 73.20 73.19 72.84 72.34 72.38 72.53
69.65 69.90 70.92 70.14 69.86 70.02 70.99 71.18 71.34 71.70 71.80 72.23 72.55 73.11 72.83 73.04 72.81 72.46 72.85 72.97 72.67 72.21
70.00 69.75 69.98 70.79 70.56 70.55 70.28 71.33 71.98 72.36 71.77 72.06 72.53 72.79 72.71 72.87 73.60 72.46 72.60 73.02 72.50 72.39
69.34 69.28 69.53 69.96 71.01 70.86 71.09 71.59 72.00 72.21 71.85 72.18 72.62 72.34 72.81 72.97 72.91 72.99 73.20 72.87 72.32 72.78
69.62 69.59 69.80 70.18 70.33 70.93 71.65 71.64 71.74 72.23 72.19 72.59 72.70 72.74 73.09 73.04 72.91 73.05 73.11 73.46 73.26 72.49
69.64 69.86 70.39 70.30 70.11 70.79 71.26 71.69 72.04 71.90 72.06 72.12 72.71 72.40 72.93 73.07 72.85 72.05 72.13 72.93 71.28 72.31
70.21 69.95 70.48 70.44 70.06 70.47 70.64 71.02 71.12 71.26 71.68 71.86 71.98 67.60 67.37 70.99 72.04 72.03 71.75 71.00 70.90 71.48
70.02 69.68 69.56 70.09 70.02 70.17 70.10 70.86 70.66 70.74 71.12 71.06 69.39 63.61 64.87 67.37 70.87 70.69 70.81 70.42 70.49 69.43
68.95 68.83 69.50 69.15 69.55 69.95 70.14 70.21 70.47 70.46 70.50 68.32 63.35 61.28 62.81 65.79 68.28 68.77 67.19 67.49 67.02 64.34
68.77 67.96 67.93 67.10 67.48 68.79 68.82 69.63 69.44 68.18 65.69 64.00 60.90 59.54 60.70 64.78 67.87 64.05 62.58 62.51 61.55 60.62
67.89 67.78 67.19 67.42 67.19 68.18 68.09 68.12 65.92 62.64 61.77 60.18 60.54 58.88 60.25 64.19 65.67 62.66 61.58 61.37 58.66 57.31
64.33 67.33 67.04 66.83 67.40 67.93 65.94 63.00 61.31 59.80 59.34 59.08 58.61 57.71 57.35 59.71 62.79 61.36 60.70 59.51 57.44 55.03
MSLP
1016.09 1016.48 1016.70 1016.82 1017.04 1017.26 1017.45 1017.48 1017.48 1017.69 1018.08 1018.21 1018.29 1018.41 1018.50 1018.98 1018.93 1019.19 1019.35 1019.41 1019.45 1019.46
1015.63 1016.00 1016.25 1016.42 1016.55 1016.72 1016.75 1016.92 1017.16 1017.25 1017.72 1017.83 1017.97 1018.03 1018.19 1018.68 1018.78 1018.97 1019.03 1019.08 1019.09 1019.11
1015.16 1015.49 1015.75 1016.03 1016.18 1016.25 1016.32 1016.50 1016.67 1016.95 1017.21 1017.54 1017.58 1017.76 1018.06 1018.37 1018.52 1018.64 1018.72 1018.82 1018.84 1018.79
1014.42 1015.00 1015.54 1015.75 1015.80 1015.91 1015.97 1016.17 1016.38 1016.48 1016.73 1016.94 1017.16 1017.44 1017.79 1017.98 1018.22 1018.47 1018.48 1018.50 1018.53 1018.52
1014.09 1014.57 1014.88 1015.36 1015.48 1015.57 1015.79 1015.90 1016.01 1016.16 1016.38 1016.45 1016.59 1016.96 1017.32 1017.53 1017.77 1018.05 1018.07 1018.07 1018.17 1018.06
1013.17 1013.86 1014.31 1014.60 1015.03 1015.27 1015.37 1015.63 1015.81 1015.99 1016.03 1016.02 1016.22 1016.46 1016.69 1016.91 1017.19 1017.38 1017.40 1017.56 1017.70 1017.66
1012.57 1012.87 1013.20 1013.74 1014.28 1014.72 1014.96 1015.22 1015.40 1015.48 1015.58 1015.67 1015.89 1016.19 1016.39 1016.60 1016.76 1016.85 1016.93 1017.02 1017.11 1017.27
1011.15 1011.58 1012.44 1013.00 1013.21 1013.83 1014.28 1014.43 1014.75 1014.99 1015.04 1015.19 1015.48 1015.71 1015.97 1016.18 1016.32 1016.44 1016.55 1016.63 1016.85 1016.79
1011.67 1011.83 1011.92 1012.12 1012.40 1012.70 1013.31 1013.78 1014.09 1014.43 1014.60 1014.81 1015.09 1015.29 1015.50 1015.73 1016.08 1016.26 1016.37 1016.44 1016.52 1016.82
1011.36 1011.23 1011.08 1011.18 1011.44 1011.71 1012.18 1013.05 1013.38 1013.76 1014.07 1014.42 1014.81 1015.17 1015.38 1015.59 1015.88 1016.04 1016.25 1016.61 1016.94 1017.21
1010.64 1010.64 1010.54 1010.52 1010.95 1011.16 1011.83 1012.17 1012.67 1013.19 1013.50 1014.01 1014.89 1015.27 1015.35 1015.61 1015.93 1016.14 1016.71 1017.05 1017.35 1017.70
1009.85 1009.75 1010.04 1010.25 1010.05 1010.56 1011.12 1011.38 1011.99 1012.54 1013.28 1014.02 1014.89 1015.26 1015.35 1015.50 1015.88 1016.56 1017.22 1017.67 1017.94 1017.99
1008.95 1008.76 1008.77 1009.04 1009.32 1009.37 1009.91 1010.93 1012.05 1012.54 1013.22 1013.84 1014.77 1015.07 1015.25 1015.51 1016.17 1016.69 1017.57 1018.20 1018.55 1018.65
1007.53 1007.47 1008.01 1008.58 1008.94 1009.50 1010.11 1011.13 1012.04 1012.85 1013.73 1014.16 1014.76 1015.03 1015.12 1015.58 1016.03 1016.74 1017.59 1018.22 1018.85 1019.00
Wind_Speed
8 6 6 7 5 5 5 5 5 5 5 6 5 4 3 3 3 3 3 4 4 2
9 7 7 7 5 4 5 5 6 6 7 6 6 6 4 4 4 3 3 4 4 3
9 8 8 6 7 6 6 6 6 7 6 6 6 5 5 4 5 4 4 4 4 4
9 8 6 8 8 7 5 6 7 7 7 7 7 7 6 6 5 6 5 5 5 5
5 6 9 9 8 7 7 5 7 5 7 7 7 7 8 8 6 8 7 7 6 7
9 8 11 11 9 8 8 7 7 7 7 7 7 7 7 6 6 7 7 7 7 8
9 10 12 11 9 9 9 9 9 9 9 8 7 6 6 6 6 6 7 7 7 6
14 12 10 11 10 10 10 11 9 8 7 6 6 6 7 6 6 6 7 5 3 4
9 10 12 10 10 13 12 12 10 10 9 8 5 7 9 6 5 5 5 4 3 3
10 13 16 14 12 12 13 11 12 11 9 8 5 8 7 8 4 4 4 3 2 3
12 16 16 13 13 12 10 12 10 10 9 7 5 6 5 7 4 5 5 5 5 5
12 15 15 14 13 10 9 7 9 7 9 8 7 7 7 6 7 8 7 5 5 5
13 10 15 14 12 9 5 7 5 7 7 10 8 6 8 5 5 7 6 6 6 10
16 14 11 10 10 9 7 8 8 9 7 8 6 6 7 10 6 7 6 6 4 3
Wind_Direction
203 203 209 201 187 193 195 202 193 198 197 223 224 232 214 226 233 222 223 239 229 245
204 194 204 216 193 194 199 198 196 194 202 220 220 217 184 236 247 241 241 242 241 241
207 209 208 204 215 205 209 192 186 201 206 208 211 219 195 214 233 238 243 250 249 250
200 200 209 212 213 221 207 197 203 196 207 213 206 204 205 214 222 231 242 244 238 248
188 199 206 219 219 204 220 214 214 199 212 209 201 201 207 213 207 216 228 234 239 255
193 197 221 222 217 209 208 214 217 222 215 210 209 204 211 214 226 228 227 226 234 245
197 206 217 220 217 212 212 215 215 212 209 204 203 214 220 215 221 231 239 232 230 240
211 224 218 212 200 214 214 217 213 214 210 209 204 209 212 216 222 231 246 239 229 220
212 199 214 208 213 205 209 212 202 211 212 204 207 201 201 199 209 218 223 208 184 141
209 213 226 224 219 213 205 204 210 209 200 203 170 166 176 185 185 180 170 161 146 101
218 214 223 210 212 211 208 199 203 213 203 158 137 154 147 173 148 109 73 57 66 94
228 218 217 207 197 194 190 193 196 173 157 151 141 156 157 155 116 101 88 74 71 85
242 217 217 207 200 175 191 178 163 132 128 128 129 129 137 143 124 120 112 93 67 53
246 213 196 203 192 167 148 130 129 122 109 101 109 92 123 138 128 124 111 98 78 47